Simultaneous Nadir Overpasses (SNOs) Predictions

Prediction of SNOs between GOES-14 and NOAA-20 Satellite Orbit:

Table of predicted SNOs for the next 14.0 days since TLE Epoch: 5/10/2019
Index Date Time (GOES-14) GOES-14 Lat,Lon NOAA-20 Lat,Lon Distance(km) Time Diff (sec)
1 05/11/2019 08:36:38 0.09,-104.38 0.92,-108.10 423.59 80
2 05/12/2019 08:20:32 0.10,-104.39 -0.06,-103.56 93.76 80
3 05/14/2019 20:21:04 -0.10,-104.45 -0.07,-104.34 12.26 80
4 05/17/2019 08:24:06 0.09,-104.40 0.25,-105.07 77.59 80
5 05/18/2019 08:08:02 0.09,-104.41 -0.79,-100.55 439.95 80
6 05/19/2019 20:29:58 -0.07,-104.48 -0.37,-105.86 157.24 80
7 05/20/2019 20:08:32 -0.08,-104.48 0.61,-101.32 359.40 80
8 05/22/2019 08:30:20 0.06,-104.41 0.56,-106.59 248.75 80
9 05/23/2019 08:14:15 0.07,-104.42 -0.48,-102.07 268.90 80




NCC Satellite Simultaneous Nadir Overpasses (SNOs) Prediction Service
